Regional Weather Roundup
Issued by NWS Charleston, SC

Current Version | Previous Version | Graphics & Text | Print | Product List | Glossary On
Versions: 1 2 3 4 5 6 7 8 9 10 11 12 13 14 15 16 17 18 19 20 21 22 23 24 25 26 27 28 29 30 31 32 33 34 35 36 37 38 39 40 41 42 43 44 45 46 47 48 49 50
000
ASUS42 KCHS 021210
RWRCHS

REGIONAL WEATHER ROUNDUP
NATIONAL WEATHER SERVICE CHARLESTON SC
800 AM EDT TUE SEP 02 2014

NOTE: "FAIR" INDICATES FEW OR NO CLOUDS BELOW 12,000 FEET WITH NO
SIGNIFICANT WEATHER AND/OR OBSTRUCTIONS TO VISIBILITY.

NOT ALL STATIONS ARE QUALITY CONTROLLED BY THE NATIONAL
WEATHER SERVICE. USE DATA WITH CAUTION...ESPECIALLY
DEWPOINT OBSERVATIONS.

SCZ027-030-031-034>040-042>050-021300-
...SOUTH CAROLINA...

CITY           SKY/WX    TMP DP  RH WIND       PRES   REMARKS
N CHARLESTON   MOSUNNY   82  78  88 CALM      30.10R HX  91
6HR MIN TEMP:  78; 6HR MAX TEMP:  82;

WATERFRONT PRK   N/A     82 N/A N/A W3          N/A
FORT JOHNSON   NOT AVBL
MOUNT PLEASANT FAIR      77  77 100 CALM      30.09R FOG
JOHNS ISLAND   SUNNY     82  81  94 CALM      30.09S HX  95
PINOPOLIS        N/A     82  77  83 CALM      30.00F HX  91
MONCKS CORNER    N/A     77  77 100 CALM      30.09R FOG
SUMMERVILLE    PTSUNNY   75  75 100 CALM      30.10S FOG
BEAUFORT MCAS  MOSUNNY   78  75  90 CALM      30.09R
6HR MIN TEMP:  77; 6HR MAX TEMP:  82;

BEAUFORT ARPT  FAIR      79  79 100 CALM      30.08S
HILTON HEAD IS MOSUNNY   77  77 100 CALM      30.10R
GEORGETOWN     NOT AVBL
WALTERBORO     PTSUNNY   77 N/A N/A CALM      30.10R FOG
ORANGEBURG     PTSUNNY   76  73  91 CALM      30.10R
6HR MIN TEMP:  74; 6HR MAX TEMP:  76;

BARNWELL       FAIR      77  75  94 CALM      30.10R
AIKEN          FAIR      75  75 100 CALM      30.14R
MANNING        FAIR      77 N/A N/A CALM      30.09R
KINGSTREE      NOT AVBL
COLUMBIA       MOSUNNY   76  72  87 CALM      30.09R
6HR MIN TEMP:  74; 6HR MAX TEMP:  78;

SUMTER         SUNNY     76  75  97 CALM      30.08R
6HR MIN TEMP:  75; 6HR MAX TEMP:  77;

FLORENCE       SUNNY     76  74  93 S3        30.09R
6HR MIN TEMP:  73; 6HR MAX TEMP:  77;

MYRTLE BEACH   SUNNY     79  75  89 SW5       30.10R
N MYRTLE BEACH SUNNY     79  76  90 CALM      30.10R
6HR MIN TEMP:  77; 6HR MAX TEMP:  81;


$$

GAZ063-065-086>088-099>101-113>116-118-119-134-136>141-150-021300-
...GEORGIA...

CITY           SKY/WX    TMP DP  RH WIND       PRES   REMARKS
SAVANNAH ARPT  MOSUNNY   78  74  87 S3        30.09R
6HR MIN TEMP:  76; 6HR MAX TEMP:  81;

HUNTER AAF     SUNNY     76  76  98 E1        30.07R
6HR MIN TEMP:  75; 6HR MAX TEMP:  80;

FORT STEWART   SUNNY     75  73  92 CALM      30.08S
6HR MIN TEMP:  73; 6HR MAX TEMP:  78;

STATESBORO     NOT AVBL
SYLVANIA       SUNNY     73  73  98 SE3       30.10R FOG
CLAXTON        NOT AVBL
THOMSON        PTSUNNY   72  72 100 CALM      30.16R
AUGUSTA-BUSH   PTSUNNY   75  73  93 CALM      30.09R
6HR MIN TEMP:  72; 6HR MAX TEMP:  75;

AUGUSTA-DANIEL PTSUNNY   77  71  82 NW6       30.11R
SWAINSBORO     FAIR      77  77 100 NW5       30.12R
VIDALIA          N/A     77  73  88 CALM      30.10R
ALMA           PTSUNNY   75  73  93 CALM      30.09R
6HR MIN TEMP:  72; 6HR MAX TEMP:  78;

WAYCROSS       MOSUNNY   78  77  96 CALM      30.09S
JESUP            N/A     75  73  94 CALM      30.09S
BRUNSWICK      SUNNY     79  73  83 CALM      30.09S
SAINT SIMONS   SUNNY     79  74  84 SW3       30.09R
6HR MIN TEMP:  78; 6HR MAX TEMP:  81;


$$

SCZ027-028-034-036>038-045-046-048>050-GAZ119-141-021300-
...LAKE AND SUPPLEMENTAL COASTAL OBSERVATIONS...

STATION/POSITION TIME  TEMP    WIND        PRES    WAVE   SWELL
                       AIR SEA DIR/SP/G            HT/PER HT/PER/DIR
                 (UTC) (F)     (DEG/KT/KT) (MB)    (FT/S) (FT/S/D)
UPR LAKE MARION  NOT AVBL
WINYAH BAY       1100   78     290/  1     1018.0S
LAKE MURRAY      1100   78     290/  1/  3 1017.9S
ACE BASIN NERRS  1100   77        CALM     1018.0S
FORT PULASKI     1200   81     240/  3/  4 1019.0R
SAPELO ISLAND    1100   81     220/  5     1019.0R

$$

ANZ835-935-AMZ111-154-330-350-352-354-374-450-454-472-021300-
...C-MAN AND BUOY OBSERVATIONS...

STATION/POSITION TIME  TEMP    WIND        PRES    WAVE   SWELL
                       AIR SEA DIR/SP/G            HT/PER HT/PER/DIR
                 (UTC) (F)     (DEG/KT/KT) (MB)    (FT/S) (FT/S/D)
FOLLY BEACH CMAN 1100   80     320/  2/  4 1019.0R
BUOY 41004       1200   83 83  260/  6/  8 1018.6R   2/ 8   2/ 8
BUOY 41008       1200   83 85  230/  8/ 10 1018.8R   2/ 8   2/ 80/ 8
5E ST. MARYS GA  1200      84                N/A     2/ 8
FRYING PAN BUOY  NOT AVBL
BUOY 41025       1200   81     250/ 12/ 14 1018.6R   3/ 4   2/100/ 9
CAPE LOOKOUT NC  1100   81     260/ 10/ 13 1018.5R
BUOY 41002       1130   81 83  220/ 10/ 12 1020.8R   3/12   3/ 50/12
BUOY 41010       1200   83 84  130/  4/  6 1019.3R   3/ 9   3/ 80/ 9
BUOY 41012       NOT AVBL
ST AUGUSTINE FL  1200   79     260/  3/  4 1019.9R
CAPERS NEARSHORE 1100   83     230/  6/  6   N/A
FRIPP NEARSHORE  NOT AVBL


$$



USA.gov is the U.S. government's official web portal to all federal, state and local government web resources and services.